Location: Strawberry
(45.6646°N, 111.9596°W)
Time: 17:03:02
(UTC+00:00)

A-11 Canister half - All Passes

Search period start: 26 September 2022 00:00
Search period end: 06 October 2022 00:00
Orbit: 1515 x 1684 km, 47.2° (Epoch: 25 September)

Date Brightness Start Highest point End Pass type
(mag) Time Alt. Az. Time Alt. Az. Time Alt. Az.
26 Sep - 04:08:31 10° S 04:15:51 25° SE 04:23:00 10° E visible
26 Sep - 06:10:06 10° SW 06:19:31 66° SSE 06:28:41 10° ENE visible
26 Sep - 08:14:55 10° W 08:24:23 83° N 08:33:41 10° E visible
26 Sep - 10:20:11 10° WNW 10:29:32 85° SSW 10:38:50 10° ESE visible
26 Sep - 12:25:19 10° WNW 12:33:46 42° SW 12:42:16 10° SSE visible
26 Sep - 14:35:05 10° WSW 14:36:38 10° WSW 14:38:11 10° SW daylight
27 Sep - 03:45:55 10° S 03:53:00 24° SE 03:59:57 10° E visible
27 Sep - 05:47:13 10° SW 05:56:37 63° SSE 06:05:46 10° ENE visible
27 Sep - 07:51:56 10° W 08:01:27 83° N 08:10:45 10° E visible
27 Sep - 09:57:15 10° WNW 10:06:37 87° SSW 10:15:54 10° ESE visible
27 Sep - 12:02:21 10° WNW 12:10:55 44° SW 12:19:31 10° SSE visible
27 Sep - 14:10:57 10° WSW 14:13:51 12° WSW 14:16:45 10° SW daylight
28 Sep - 03:23:21 10° S 03:30:11 22° SE 03:36:52 10° E visible
28 Sep - 05:24:20 10° SW 05:33:43 61° SSE 05:42:51 10° ENE visible
28 Sep - 07:28:58 10° W 07:38:30 84° N 07:47:49 10° E visible
28 Sep - 09:34:18 10° WNW 09:43:42 89° SSW 09:52:59 10° ESE visible
28 Sep - 11:39:24 10° WNW 11:48:04 47° SW 11:56:44 10° SSE visible
28 Sep - 13:47:19 10° W 13:51:04 13° WSW 13:54:50 10° SSW daylight
29 Sep - 03:00:50 10° S 03:07:22 21° SE 03:13:45 10° E visible
29 Sep - 05:01:28 10° SW 05:10:50 59° SSE 05:19:55 10° ENE visible
29 Sep - 07:06:00 10° W 07:15:34 85° N 07:24:54 10° E visible
29 Sep - 09:11:21 10° WNW 09:20:47 90° NNE 09:30:03 10° ESE visible
29 Sep - 11:16:27 10° WNW 11:25:13 49° SW 11:33:57 10° SE visible
29 Sep - 13:23:53 10° W 13:28:17 14° SW 13:32:42 10° SSW daylight
30 Sep - 02:38:21 10° SSE 02:44:33 19° SE 02:50:37 10° E visible
30 Sep - 04:38:37 10° SW 04:47:57 56° SSE 04:57:00 10° ENE visible
30 Sep - 06:43:02 10° WSW 06:52:38 86° N 07:01:58 10° E visible
30 Sep - 08:48:24 10° WNW 08:57:51 88° NNE 09:07:08 10° ESE visible
30 Sep - 10:53:30 10° WNW 11:02:22 51° SW 11:11:10 10° SE visible
30 Sep - 13:00:33 10° W 13:05:29 16° SW 13:10:27 10° SSW daylight
01 Oct - 02:15:55 10° SSE 02:21:43 18° SE 02:27:26 10° E visible
01 Oct - 04:15:45 10° SW 04:25:04 54° SE 04:34:05 10° ENE visible
01 Oct - 06:20:04 10° WSW 06:29:41 87° NNW 06:39:02 10° ENE visible
01 Oct - 08:25:26 10° WNW 08:34:55 87° N 08:44:12 10° ESE visible
01 Oct - 10:30:33 10° WNW 10:39:30 54° SW 10:48:22 10° SE visible
01 Oct - 12:37:17 10° W 12:42:42 17° SW 12:48:08 10° SSW visible
02 Oct - 01:53:32 10° SSE 01:58:55 16° SE 02:04:12 10° E visible
02 Oct - 03:52:55 10° SW 04:02:11 51° SE 04:11:10 10° ENE visible
02 Oct - 05:57:06 10° WSW 06:06:45 89° NNW 06:16:07 10° ENE visible
02 Oct - 08:02:29 10° W 08:11:59 86° N 08:21:17 10° E visible
02 Oct - 10:07:36 10° WNW 10:16:37 56° SSW 10:25:33 10° SE visible
02 Oct - 12:14:05 10° W 12:19:54 19° SW 12:25:44 10° SSW visible
03 Oct - 01:31:14 10° SSE 01:36:06 15° SE 01:40:53 10° E visible
03 Oct - 03:30:05 10° SSW 03:39:17 49° SE 03:48:14 10° ENE visible
03 Oct - 05:34:07 10° WSW 05:43:49 90° SSE 05:53:12 10° ENE visible
03 Oct - 07:39:31 10° W 07:49:02 85° N 07:58:21 10° E visible
03 Oct - 09:44:39 10° WNW 09:53:45 59° SSW 10:02:44 10° SE visible
03 Oct - 11:50:55 10° W 11:57:07 20° SW 12:03:18 10° S visible
04 Oct - 01:09:02 10° SSE 01:13:18 14° ESE 01:17:30 10° E daylight
04 Oct - 03:07:16 10° SSW 03:16:25 47° SE 03:25:17 10° ENE visible
04 Oct - 05:11:10 10° WSW 05:20:53 88° SSE 05:30:17 10° ENE visible
04 Oct - 07:16:32 10° W 07:26:06 84° N 07:35:26 10° E visible
04 Oct - 09:21:42 10° WNW 09:30:52 62° SSW 09:39:54 10° SE visible
04 Oct - 11:27:47 10° W 11:34:18 22° SW 11:40:49 10° S visible
05 Oct - 00:47:00 10° SE 00:50:30 12° ESE 00:53:56 10° ESE daylight
05 Oct - 02:44:27 10° SSW 02:53:33 44° SE 03:02:21 10° ENE visible
05 Oct - 04:48:12 10° WSW 04:57:56 87° SSE 05:07:22 10° ENE visible
05 Oct - 06:53:35 10° W 07:03:10 83° N 07:12:30 10° E visible
05 Oct - 08:58:46 10° WNW 09:07:59 64° SSW 09:17:03 10° SE visible
05 Oct - 11:04:42 10° W 11:11:29 23° SW 11:18:17 10° S visible
